Terminal Aerodrome Forecast
Issued by NWS Milwaukee/Sullivan, WI

Home | Current Version | Previous Version | Text Only | Print | Product List | Glossary On
Versions: 1 2 3 4 5 6 7 8 9 10 11 12 13 14 15 16 17 18 19 20 21 22 23 24 25 26 27 28 29
000
FTUS43 KMKX 302025 AAA
TAFMSN
TAF AMD
KMSN 302025Z 3020/3118 VRB05KT P6SM SCT250
     FM310600 VRB03KT P6SM VCSH BKN080
     FM311400 15007KT P6SM SCT080=

USA.gov is the U.S. government's official web portal to all federal, state and local government web resources and services.